Location: Newark
(8.1700°N, 77.4300°E)
Time: 10:17:30
(UTC+00:00)

Hubble Space Telescope - Pass Details

Date: 27 August 2019
Orbit: 536 x 540 km, 28.5° (Epoch: 16 September)

Event Time Altitude Azimuth Distance (km) Brightness Sun altitude
Rises 14:08:31 0° 306° (NW) 2,663 5.6 -17.2°
Reaches altitude 10° 14:10:49 10° 311° (NW) 1,773 4.4 -17.7°
Maximum altitude 14:14:49 51° 28° (NNE) 667 1.1 -18.7°
Enters shadow 14:15:40 43° 69° (ENE) 753 1.1 -18.9°
